Location: Unspecified
(41.5516°N, 88.1098°W)
Time: 22:31:03
(UTC-05:00)

Cosmos 1674 - Visible Passes

Search period start: 31 July 2015 00:00
Search period end: 10 August 2015 00:00
Orbit: 505 x 531 km, 82.5° (Epoch: 31 July)

Date Brightness Start Highest point End Pass type
(mag) Time Alt. Az. Time Alt. Az. Time Alt. Az.
31 Jul 2.7 04:20:18 10° N 04:24:12 89° ENE 04:28:07 10° S visible
01 Aug 2.9 04:06:08 10° N 04:10:02 74° E 04:13:56 10° SSE visible
02 Aug 3.2 03:51:59 10° N 03:55:51 61° E 03:59:10 14° SSE visible
03 Aug 3.5 03:37:51 10° N 03:41:40 50° E 03:44:15 19° SSE visible
03 Aug 4.8 05:15:59 10° WNW 05:17:02 11° W 05:17:52 10° W visible
04 Aug 3.8 03:23:44 10° N 03:27:27 42° ENE 03:29:25 24° SE visible
04 Aug 4.7 05:01:02 10° WNW 05:02:54 13° W 05:04:26 10° WSW visible
05 Aug 4.2 03:09:38 10° N 03:13:15 35° ENE 03:14:40 26° ESE visible
05 Aug 4.5 04:46:23 10° NW 04:48:46 15° W 04:49:40 14° WSW visible
06 Aug 4.4 02:55:33 10° NNE 02:59:01 30° ENE 02:59:57 27° ESE visible
06 Aug 4.3 04:31:52 10° NW 04:34:37 18° W 04:34:58 18° W visible
07 Aug 4.6 02:41:30 10° NNE 02:44:46 25° ENE 02:45:18 25° E visible
07 Aug 4.2 04:17:26 10° NW 04:20:20 21° W 04:20:20 21° W visible
08 Aug 4.9 02:27:29 10° NNE 02:30:31 22° ENE 02:30:42 22° ENE visible
08 Aug 4.1 04:03:02 10° NW 04:05:43 24° WNW 04:05:43 24° WNW visible
09 Aug 5.2 02:13:30 10° NNE 02:16:07 18° ENE 02:16:07 18° ENE visible
09 Aug 4.1 03:48:40 10° NNW 03:51:09 26° WNW 03:51:09 26° WNW visible
